This demonstration page uses our WeatherBlox Daily Observations layout. Learn more.

Left ArrowRight Arrow

39.51506, -84.39828

Hourly Observations for May 31, 2018

Temp ( °F °C ) Dew Point ( °F °C ) Humidity (%) Winds ( mph kmh ) Pressure ( in mb ) Visibility ( mi km ) Precip ( " mm )
12:15 am 00:15 Partly Cloudy 73 22.9 72 22 95 95 S 8 13 29.77 1008 10 16 N/A
12:35 am 00:35 Partly Cloudy 73 22.8 72 22 95 95 S 7 11 29.77 1008 10 16 N/A
12:55 am 00:55 Mostly Cloudy 73 22.9 72 22 95 95 S 7 11 29.77 1008 10 16 N/A
1:15 am 01:15 Mostly Cloudy 73 22.9 72 22.1 95 95 S 3 6 29.77 1008 10 16 N/A
1:35 am 01:35 Mostly Cloudy 73 22.8 72 22 95 95 S 9 15 29.77 1008 10 16 N/A
1:55 am 01:55 Mostly Cloudy 73 22.9 72 22 95 95 SSW 8 13 29.77 1008 10 16 N/A
2:15 am 02:15 Cloudy 73 22.7 71 21.8 95 95 S 8 13 29.77 1008 10 16 N/A
2:35 am 02:35 Mostly Cloudy with Light Rain 73 22.6 71 21.6 94 94 S 7 11 29.77 1008 10 16 N/A
2:55 am 02:55 Mostly Cloudy 72 22.3 71 21.5 95 95 S 6 9 29.77 1008 10 16 N/A
3:15 am 03:15 Partly Cloudy 72 22.2 71 21.4 95 95 S 5 7 29.77 1008 10 16 N/A
3:35 am 03:35 Partly Cloudy 72 22.1 71 21.4 96 96 S 8 13 29.77 1008 10 16 N/A
3:55 am 03:55 Mostly Cloudy 72 22 71 21.4 96 96 S 5 7 29.77 1008 7 11 N/A
4:15 am 04:15 Cloudy 72 22.2 71 21.6 96 96 SSW 6 9 29.77 1008 7 11 N/A
4:35 am 04:35 Cloudy 72 22.2 71 21.6 96 96 SW 3 6 29.80 1009 7 11 N/A
4:55 am 04:55 Cloudy with Mist and Fog 72 22.3 71 21.8 97 97 SSW 7 11 29.80 1009 7 11 N/A
5:15 am 05:15 Cloudy with Mist and Fog 72 22.4 71 21.9 97 97 SW 5 7 29.80 1009 7 11 N/A
5:35 am 05:35 Cloudy with Mist and Fog 72 22.2 71 21.7 97 97 SW 5 7 29.80 1009 7 11 N/A
5:55 am 05:55 Cloudy with Mist and Fog 72 22.1 71 21.7 98 98 SSW 5 7 29.80 1009 5 8 N/A
6:15 am 06:15 Cloudy with Mist and Fog 72 22.2 71 21.6 96 96 SSW 6 9 29.80 1009 7 11 N/A
6:35 am 06:35 Partly Cloudy with Mist and Fog 72 22.1 71 21.4 96 96 SW 8 13 29.80 1009 7 11 N/A
6:55 am 06:55 Cloudy with Mist and Fog 72 22.2 71 21.5 96 96 SSW 6 9 29.83 1010 5 8 N/A
7:15 am 07:15 Cloudy with Mist and Fog 72 22.3 71 21.6 96 96 SSW 7 11 29.83 1010 7 11 N/A
7:35 am 07:35 Cloudy with Mist and Fog 73 22.5 71 21.6 95 95 S 7 11 29.83 1010 7 11 N/A
7:55 am 07:55 Cloudy 73 22.7 71 21.5 93 93 SSW 8 13 29.83 1010 7 11 N/A
8:15 am 08:15 Cloudy 73 23 71 21.5 91 91 SSW 9 15 29.83 1010 10 16 N/A
8:35 am 08:35 Cloudy 73 22.8 70 21.3 91 91 SSW 9 15 29.83 1010 10 16 N/A
8:55 am 08:55 Cloudy 74 23.4 71 21.4 89 89 SSW 8 13 29.83 1010 10 16 N/A
9:15 am 09:15 Mostly Cloudy 75 23.7 71 21.4 87 87 SW 9 15 29.83 1010 10 16 N/A
9:35 am 09:35 Mostly Cloudy 76 24.7 71 21.7 83 83 SSW 12 19 29.83 1010 10 16 N/A
9:55 am 09:55 Partly Cloudy 76 24.7 71 21.7 83 83 SW 12 19 29.83 1010 10 16 N/A
10:15 am 10:15 Mostly Cloudy 78 25.6 72 22.1 81 81 SSW 12 19 29.83 1010 10 16 N/A
10:35 am 10:35 Mostly Cloudy 79 25.9 72 22.2 80 80 SW 7 11 29.83 1010 10 16 N/A
10:55 am 10:55 Sunny 79 26.3 72 22.2 78 78 SW 9 15 29.83 1010 10 16 N/A
11:15 am 11:15 Partly Cloudy 80 26.6 73 22.5 78 78 SSW 12 19 29.80 1009 10 16 N/A
11:35 am 11:35 Partly Cloudy 81 27.1 73 22.5 76 76 SW 9 15 29.80 1009 10 16 N/A
11:55 am 11:55 Partly Cloudy 82 27.6 73 22.6 74 74 SSW 12 19 29.80 1009 10 16 N/A
12:15 pm 12:15 Sunny 82 27.8 73 22.9 75 75 SW 12 19 29.80 1009 10 16 N/A
12:35 pm 12:35 Sunny 83 28.3 74 23.1 73 73 SW 13 20 29.80 1009 10 16 N/A
12:55 pm 12:55 Mostly Cloudy 81 27.4 72 22.4 74 74 SW 12 19 29.80 1009 10 16 N/A
1:15 pm 13:15 Partly Cloudy 83 28.4 74 23.2 73 73 SW 10 17 29.80 1009 10 16 N/A
1:35 pm 13:35 Partly Cloudy 83 28.4 74 23.2 73 73 SSW 13 20 29.80 1009 10 16 N/A
1:55 pm 13:55 Partly Cloudy 84 29 74 23.4 72 72 SW 14 22 29.80 1009 10 16 N/A
2:15 pm 14:15 Partly Cloudy 83 28.3 73 23 73 73 SSW 16 26 29.80 1009 10 16 N/A
2:35 pm 14:35 Sunny 84 29.1 74 23.2 71 71 SSW 13 20 29.80 1009 10 16 N/A
2:55 pm 14:55 Partly Cloudy 85 29.2 73 22.8 68 68 SSW 13 20 29.80 1009 10 16 N/A
3:15 pm 15:15 Sunny 85 29.6 73 22.6 66 66 SSW 14 22 29.80 1009 10 16 N/A
3:35 pm 15:35 Partly Cloudy 87 30.3 73 22.7 64 64 WSW 14 22 29.77 1008 10 16 N/A
3:55 pm 15:55 Partly Cloudy 86 30.2 73 22.8 65 65 SSW 14 22 29.77 1008 10 16 N/A
4:15 pm 16:15 Partly Cloudy 86 29.9 73 23 67 67 SW 13 20 29.77 1008 10 16 N/A
4:35 pm 16:35 Mostly Cloudy 82 27.8 69 20.4 64 64 WSW 21 33 29.77 1008 10 16 N/A
4:55 pm 16:55 Sunny 80 26.5 66 19.1 64 64 WSW 17 28 29.80 1009 10 16 N/A
5:15 pm 17:15 Sunny 78 25.7 65 18.6 65 65 WSW 15 24 29.83 1010 10 16 N/A
5:35 pm 17:35 Sunny 78 25.5 66 18.9 67 67 SW 12 19 29.80 1009 10 16 N/A
5:55 pm 17:55 Sunny 77 25.1 66 18.8 68 68 SSW 8 13 29.83 1010 10 16 N/A
6:15 pm 18:15 Sunny 75 24 65 18.4 71 71 S 13 20 29.83 1010 10 16 N/A
6:35 pm 18:35 Sunny 75 23.8 66 18.7 73 73 SW 12 19 29.83 1010 10 16 N/A
6:55 pm 18:55 Sunny 76 24.3 66 18.9 72 72 SW 13 20 29.83 1010 10 16 N/A
7:15 pm 19:15 Sunny 74 23.5 66 18.8 75 75 SSW 8 13 29.80 1009 10 16 N/A
7:35 pm 19:35 Sunny 74 23.6 66 18.7 74 74 SSW 14 22 29.80 1009 10 16 N/A
8:15 pm 20:15 Sunny 73 23 65 18.2 74 74 SW 13 20 29.80 1009 10 16 N/A
8:35 pm 20:35 Sunny 72 22.4 65 18.2 77 77 SSW 13 20 29.80 1009 10 16 N/A
8:55 pm 20:55 Sunny 72 22.2 65 18.4 79 79 SSW 12 19 29.80 1009 10 16 N/A
9:15 pm 21:15 Clear 72 22.1 65 18.5 80 80 SW 9 15 29.83 1010 10 16 N/A
9:35 pm 21:35 Clear 71 21.9 65 18.6 82 82 SW 9 15 29.80 1009 10 16 N/A
9:55 pm 21:55 Clear 72 22.2 66 18.7 81 81 SSW 12 19 29.83 1010 10 16 N/A
10:15 pm 22:15 Clear 72 22.1 66 18.7 81 81 SSW 13 20 29.83 1010 10 16 N/A
10:35 pm 22:35 Clear 72 22 65 18.6 81 81 SSW 13 20 29.83 1010 10 16 N/A
10:55 pm 22:55 Partly Cloudy 71 21.8 66 18.7 83 83 SSW 14 22 29.83 1010 10 16 N/A
11:15 pm 23:15 Partly Cloudy 71 21.6 66 18.7 84 84 SW 10 17 29.83 1010 10 16 N/A
11:35 pm 23:35 Partly Cloudy 71 21.5 65 18.6 84 84 SW 12 19 29.85 1011 10 16 N/A
11:55 pm 23:55 Clear 69 20.8 65 18.5 87 87 SW 8 13 29.85 1011 10 16 N/A

Powered by AerisWeather